Weather in Borlange

Sweden     60°28′41″N   15°24′34″E
temp.,
°C
wind,
m/s
gust,
m/s
humid.,
%
clouds,
%
prec.,
mm/h
press.,
hPa
HPBL,
m
4 august, wed
wed423:00+9w117030 0.0 101210
02:00+8wnw11755 0.0 101310
05:00+7wnw11775 0.0 101310
08:00+13w11555 0.0 1014223
11:00+19sw12355 0.0 10131526
14:00+22w133080 0.0 10132659
17:00+20w333792 0.0 10131911
20:00+17wsw115522 0.0 101311
5 august, thu
thu523:00+11sw11675 0.0 101410
02:00+10ssw017024 0.0 101510
05:00+9ssw117241 0.0 101510
08:00+15ssw125482 0.0 1015218
11:00+20s243840 0.0 10141791
14:00+20ssw3438100 0.0 10141852
17:00+20s2343100 0.0 1013926
20:00+17sse1155100 0.0 101311
6 august, fri
fri623:00+15sse236497 0.0 101468
02:00+14se227594 0.0 101559
05:00+10se119577 0.0 101515
08:00+15sse257320 0.0 1015451
11:00+19se33495 0.0 10141395
14:00+22se343393 0.0 10132376
17:00+22se353390 0.0 10122666
20:00+17se2755100 0.0 1013343
7 august, sat
sat723:00+13se1167100 0.0 101410
02:00+12ene1172100 0.0 101410
05:00+11nne1180100 0.0 101411
08:00+15ne2466100 0.0 1013298
11:00+18e3553100 0.1 10121315
14:00+19e454395 0.1 10111834
17:00+19ene544897 0.0 10101902
20:00+15e3771100 0.0 1011368
8 august, sun
sun823:00+13e278384 0.1 1011278
02:00+11e1198100 0.1 101111
05:00+10nne1199100 0.0 101010
08:00+14ene1282100 0.0 1010316
11:00+19e2356100 0.0 1009946
14:00+19e2452100 0.0 10081286
17:00+15sse2581100 0.3 1008208
20:00+14se379498 0.7 1008506